{"data":{"norad_id":58068,"epoch":"2026-09-19T15:37:16.807872Z","epoch_age_seconds":211015,"freshness":"STALE","line1":"1 58068U 23158T   26262.65088898  .00003849  00000+0  14941-3 0  9991","line2":"2 58068  43.0041  15.0807 0001572 267.2124  92.8547 15.27563170163193","mean_motion":15.2756317,"eccentricity":0.0001572,"inclination_deg":43.0041,"raan_deg":15.0807,"arg_perigee_deg":267.2124,"mean_anomaly_deg":92.8547,"bstar":0.00014941,"rev_number":16319,"period_min":94.267787302047,"perigee_km":482.02090520043,"apogee_km":484.17807795338,"semimajor_km":6861.2364915769,"source":"CELESTRAK","updated_at":"2026-09-21T09:00:33.780465Z"}}